SL-16 DEB, 22454

Orbit data source: Space-Track

SL-16 DEB, 22454 is space debris in LEO originally from a launch on Fri, 25 Dec 1992 UTC launched from the Tyuratam Missile And Space Complex (TTMTR). Debris objects in space refer to the collection of defunct objects orbiting the Earth. Examples of debris include non-operational satellites, rocket bodies, and fragments generated from explosions, collisions, or faulty payload assembly.

Loading next visibility...
Identifier
22454, 1992-093ET
Orbit
LEO
Country
Flag of CISCIS
Related business
Manufacturer
Unknown
Mission
Spacecraft
Bus & Motor
Unknown
Mass
Unknown
Launch date (UTC)
1992-12-25 (33 years ago)
Launch vehicle
Unknown
Launch site
Tyuratam Missile And Space Complex (TTMTR)
Object type
Payload
Rocket body
Debris
Shape & HBR
Unknown shape, 0.1 m
Radar Cross Section
Small (<0.1 m²)

Expand to show TLE details & history
Last TLE update: 10 hours ago

TLE from 10 hours ago
0 SL-16 DEB
1 22454U 92093ET  26133.02869786  .00000154  00000-0  13022-3 0  9992
2 22454  70.9146 118.2792 0106558 223.6082 135.6576 13.99971398700058
Epoch: 2026-05-13T00:41Z
TLE epoch observation values (Epoch: 2026-05-13T00:41:19.495Z)
Latitude
0.00007°
Longitude
-122.8466°
Altitude
952.097 km
Speed
7.348 km/s
True Right ascension
07h 53m 07s
True Declination
0° 00' 00"
Sunlit
Object was in daylight at epoch
Visualization orbit readout
Latitude
Unknown
Longitude
Unknown
Altitude
Unknown
Speed
Unknown
Apparent Right ascension
Unknown
Apparent Declination
Unknown
Sunlit
N/A
Visualization observer readout
Local Sidereal Time
19:34:55
Azimuth
Unknown
Elevation
Unknown
Doppler factor
Unknown
Orbital elements
Apogee altitude
969.309 km
Perigee altitude
814.374 km
Semi-major axis
7,269.979 km
Eccentricity
0.01066
Inclination
70.9146°
RAAN
118.2792°
Arg. of periapsis
223.6082°
True anomaly
136.50297°
Mean anomaly
135.6576°
Eccentric anomaly
136.08109°
Mean motion
3.50141 °/min
Orbital period
102.82 mins
BSTAR
0.00013022
Loading maneuver chart data...
Computing Atmospheric mass density...
Loading historical data...
Loading historical data...
Loading historical data...
Loading historical data...
Loading historical data...
Loading historical data...
Loading historical data...

Documentation

Showing up to 5 results
|